• In Germany
  • List of Countries
  • For 7 days
  • Water Temperature
  • Satellite Maps
  • Weather Map
  • Weather Widgets
  • user-avatar
    Login

    Hourly Weather Klagenfurt

    Today, 26 July, Wednesday

    Time Temperature Precipitation Wind Pressure Humidity
    00:00 +10°C° 0 mm 1 mps 683 mmHg 89%
    01:00 +10°C° 0 mm 1 mps 683 mmHg 90%
    02:00 +10°C° 0 mm 1 mps 683 mmHg 89%
    03:00 +10°C° 0 mm 1 mps 683 mmHg 89%
    04:00 +9°C° 0 mm 1 mps 683 mmHg 89%
    05:00 +11°C° 0 mm 1 mps 683 mmHg 86%
    06:00 +12°C° 0 mm 1 mps 683 mmHg 83%
    07:00 +12°C° 0 mm 0 mps 683 mmHg 81%
    08:00 +14°C° 0 mm 0 mps 684 mmHg 73%
    09:00 +16°C° 0 mm 0 mps 684 mmHg 66%
    10:00 +18°C° 0 mm 0 mps 685 mmHg 58%
    11:00 +21°C° 0.2 mm 1 mps 685 mmHg 57%
    12:00 +21°C° 0.2 mm 1 mps 685 mmHg 57%
    13:00 +22°C° 0.2 mm 1 mps 685 mmHg 56%
    14:00 +21°C° 0.5 mm 1 mps 685 mmHg 59%
    15:00 +21°C° 0.5 mm 1 mps 685 mmHg 62%
    16:00 +20°C° 0.5 mm 1 mps 685 mmHg 65%
    17:00 +19°C° 0.2 mm 1 mps 685 mmHg 69%
    18:00 +16°C° 0.2 mm 1 mps 685 mmHg 74%
    19:00 +15°C° 0.2 mm 1 mps 685 mmHg 78%
    20:00 +14°C° 0 mm 1 mps 685 mmHg 79%
    21:00 +13°C° 0 mm 1 mps 686 mmHg 81%
    22:00 +12°C° 0 mm 1 mps 686 mmHg 82%
    23:00 +12°C° 0 mm 1 mps 686 mmHg 82%

    Tomorrow, 27 July, Thursday

    Time Temperature Precipitation Wind Pressure Humidity
    00:00 +11°C° 0 mm 1 mps 686 mmHg 82%
    01:00 +11°C° 0 mm 1 mps 686 mmHg 83%
    02:00 +11°C° 0.1 mm 1 mps 686 mmHg 84%
    03:00 +11°C° 0.1 mm 1 mps 686 mmHg 85%
    04:00 +11°C° 0.1 mm 1 mps 686 mmHg 86%
    05:00 +12°C° 0 mm 1 mps 687 mmHg 83%
    06:00 +13°C° 0 mm 1 mps 687 mmHg 80%
    07:00 +15°C° 0 mm 1 mps 687 mmHg 77%
    08:00 +18°C° 0 mm 1 mps 688 mmHg 66%
    09:00 +21°C° 0 mm 1 mps 689 mmHg 55%
    10:00 +24°C° 0 mm 1 mps 689 mmHg 44%
    11:00 +24°C° 0 mm 1 mps 689 mmHg 44%
    12:00 +24°C° 0 mm 1 mps 689 mmHg 43%
    13:00 +24°C° 0 mm 1 mps 689 mmHg 43%
    14:00 +24°C° 0 mm 1 mps 689 mmHg 44%
    15:00 +24°C° 0 mm 1 mps 688 mmHg 46%
    16:00 +24°C° 0 mm 1 mps 688 mmHg 47%
    17:00 +22°C° 0 mm 1 mps 688 mmHg 56%
    18:00 +21°C° 0 mm 1 mps 688 mmHg 64%
    19:00 +19°C° 0 mm 1 mps 688 mmHg 72%
    20:00 +18°C° 0 mm 1 mps 688 mmHg 74%
    21:00 +16°C° 0 mm 1 mps 688 mmHg 76%
    22:00 +15°C° 0 mm 1 mps 688 mmHg 78%
    23:00 +14°C° 0 mm 1 mps 688 mmHg 80%

    Day after tomorrow, 28 July, Friday

    Time Temperature Precipitation Wind Pressure Humidity
    00:00 +13°C° 0 mm 1 mps 688 mmHg 81%
    01:00 +13°C° 0 mm 1 mps 688 mmHg 83%
    02:00 +13°C° 0 mm 1 mps 688 mmHg 84%
    03:00 +12°C° 0 mm 1 mps 688 mmHg 84%
    04:00 +12°C° 0 mm 1 mps 688 mmHg 85%
    05:00 +14°C° 0 mm 1 mps 689 mmHg 79%
    06:00 +15°C° 0 mm 0 mps 689 mmHg 74%
    07:00 +16°C° 0 mm 0 mps 690 mmHg 69%
    08:00 +19°C° 0 mm 0 mps 690 mmHg 61%
    09:00 +21°C° 0 mm 0 mps 691 mmHg 54%
    10:00 +24°C° 0 mm 0 mps 691 mmHg 46%
    11:00 +26°C° 0.1 mm 1 mps 691 mmHg 45%
    12:00 +27°C° 0.1 mm 1 mps 691 mmHg 44%
    13:00 +27°C° 0.1 mm 2 mps 691 mmHg 44%
    14:00 +27°C° 0.1 mm 2 mps 691 mmHg 46%
    15:00 +27°C° 0.1 mm 2 mps 691 mmHg 48%
    16:00 +26°C° 0.1 mm 2 mps 691 mmHg 51%
    17:00 +25°C° 0 mm 1 mps 691 mmHg 59%
    18:00 +23°C° 0 mm 1 mps 691 mmHg 68%
    19:00 +21°C° 0 mm 1 mps 691 mmHg 76%
    20:00 +20°C° 0 mm 1 mps 691 mmHg 80%
    21:00 +18°C° 0 mm 1 mps 691 mmHg 84%
    22:00 +16°C° 0 mm 1 mps 692 mmHg 88%
    23:00 +16°C° 0 mm 1 mps 692 mmHg 89%

    29 July, Saturday

    Time Temperature Precipitation Wind Pressure Humidity
    00:00 +15°C° 0 mm 1 mps 692 mmHg 90%
    01:00 +15°C° 0 mm 1 mps 692 mmHg 91%
    02:00 +14°C° 0 mm 1 mps 692 mmHg 91%
    03:00 +13°C° 0 mm 0 mps 692 mmHg 92%
    04:00 +13°C° 0 mm 0 mps 692 mmHg 92%
    05:00 +15°C° 0 mm 1 mps 692 mmHg 88%
    06:00 +18°C° 0 mm 1 mps 693 mmHg 83%
    07:00 +20°C° 0 mm 1 mps 693 mmHg 78%
    08:00 +22°C° 0 mm 1 mps 693 mmHg 70%
    09:00 +24°C° 0 mm 1 mps 694 mmHg 62%
    10:00 +26°C° 0 mm 1 mps 694 mmHg 53%
    11:00 +27°C° 0 mm 1 mps 694 mmHg 51%
    12:00 +27°C° 0 mm 1 mps 694 mmHg 50%
    13:00 +28°C° 0 mm 1 mps 694 mmHg 48%
    14:00 +28°C° 0.2 mm 1 mps 694 mmHg 51%
    15:00 +27°C° 0.2 mm 2 mps 694 mmHg 55%
    16:00 +27°C° 0.2 mm 2 mps 694 mmHg 58%
    17:00 +25°C° 0.4 mm 1 mps 693 mmHg 66%
    18:00 +24°C° 0.4 mm 1 mps 693 mmHg 74%
    19:00 +22°C° 0.4 mm 1 mps 693 mmHg 82%
    20:00 +21°C° 0.4 mm 1 mps 693 mmHg 84%
    21:00 +20°C° 0.4 mm 1 mps 693 mmHg 87%
    22:00 +19°C° 0.4 mm 1 mps 693 mmHg 90%
    23:00 +18°C° 0.4 mm 1 mps 693 mmHg 90%

    30 July, Sunday

    Time Temperature Precipitation Wind Pressure Humidity
    00:00 +18°C° 0.4 mm 1 mps 693 mmHg 91%
    01:00 +16°C° 0.4 mm 1 mps 692 mmHg 92%
    02:00 +16°C° 0.2 mm 1 mps 692 mmHg 92%
    03:00 +16°C° 0.2 mm 1 mps 692 mmHg 92%
    04:00 +16°C° 0.2 mm 1 mps 692 mmHg 93%
    05:00 +16°C° 0.6 mm 0 mps 692 mmHg 91%
    06:00 +17°C° 0.6 mm 0 mps 692 mmHg 90%
    07:00 +18°C° 0.6 mm 0 mps 692 mmHg 88%
    08:00 +19°C° 0.2 mm 0 mps 693 mmHg 82%
    09:00 +21°C° 0.2 mm 0 mps 693 mmHg 76%
    10:00 +22°C° 0.2 mm 0 mps 693 mmHg 70%
    11:00 +25°C° 0 mm 1 mps 693 mmHg 64%
    12:00 +27°C° 0 mm 1 mps 693 mmHg 59%
    13:00 +28°C° 0 mm 1 mps 693 mmHg 53%
    14:00 +28°C° 0.1 mm 1 mps 693 mmHg 53%
    15:00 +28°C° 0.1 mm 1 mps 692 mmHg 53%
    16:00 +28°C° 0.1 mm 1 mps 692 mmHg 53%
    17:00 +27°C° 0.1 mm 1 mps 692 mmHg 61%
    18:00 +25°C° 0.1 mm 1 mps 692 mmHg 70%
    19:00 +23°C° 0.1 mm 1 mps 692 mmHg 79%
    20:00 +22°C° 0 mm 1 mps 692 mmHg 83%
    21:00 +21°C° 0 mm 1 mps 692 mmHg 87%
    22:00 +19°C° 0 mm 1 mps 692 mmHg 91%
    23:00 +19°C° 0 mm 1 mps 692 mmHg 91%

    31 July, Monday

    Time Temperature Precipitation Wind Pressure Humidity
    00:00 +18°C° 0 mm 1 mps 692 mmHg 92%
    01:00 +18°C° 0 mm 1 mps 692 mmHg 93%
    02:00 +18°C° 0 mm 1 mps 692 mmHg 93%
    03:00 +16°C° 0 mm 1 mps 692 mmHg 93%
    04:00 +16°C° 0 mm 1 mps 692 mmHg 93%
    05:00 +19°C° 0 mm 1 mps 692 mmHg 88%
    06:00 +18°C° 0 mm 0 mps 693 mmHg 83%
    07:00 +20°C° 0 mm 0 mps 693 mmHg 78%
    08:00 +24°C° 0 mm 1 mps 694 mmHg 69%
    09:00 +26°C° 0 mm 1 mps 694 mmHg 59%
    10:00 +29°C° 0 mm 1 mps 694 mmHg 50%
    11:00 +30°C° 0 mm 1 mps 694 mmHg 47%
    12:00 +30°C° 0 mm 1 mps 694 mmHg 45%
    13:00 +31°C° 0 mm 2 mps 694 mmHg 42%
    14:00 +31°C° 0 mm 2 mps 694 mmHg 43%
    15:00 +31°C° 0 mm 2 mps 693 mmHg 44%
    16:00 +31°C° 0 mm 2 mps 693 mmHg 44%
    17:00 +29°C° 0 mm 1 mps 693 mmHg 54%
    18:00 +27°C° 0 mm 1 mps 692 mmHg 63%
    19:00 +25°C° 0 mm 1 mps 692 mmHg 72%
    20:00 +23°C° 0 mm 1 mps 692 mmHg 76%
    21:00 +22°C° 0 mm 1 mps 692 mmHg 79%
    22:00 +21°C° 0 mm 1 mps 692 mmHg 82%
    23:00 +20°C° 0 mm 1 mps 691 mmHg 83%
    Show more